Location: Bidart
(43.4376°N, 1.5913°W)
Time: 10:41:39
(UTC+00:00)

ISS - Visible Passes

Search period start: 21 January 2026 00:00
Search period end: 31 January 2026 00:00
Orbit: 413 x 423 km, 51.6° (Epoch: 20 January)

Date Brightness Start Highest point End Pass type
(mag) Time Alt. Az. Time Alt. Az. Time Alt. Az.
21 Jan -2.0 17:39:50 10° WNW 17:42:27 21° N 17:45:05 10° NE visible
21 Jan -1.3 19:17:14 10° NW 19:18:17 16° NNW 19:18:17 16° NNW visible
22 Jan -2.1 18:29:14 10° NW 18:31:52 21° N 18:32:20 20° NNE visible
23 Jan -2.0 17:41:07 10° NW 17:43:39 20° N 17:46:12 10° NE visible
23 Jan -1.6 19:17:57 10° NW 19:19:18 20° NNW 19:19:18 20° NNW visible
24 Jan -2.6 18:29:57 10° NW 18:32:55 28° NNE 18:33:22 27° NNE visible
25 Jan -2.3 17:41:53 10° NW 17:44:39 23° NNE 17:47:25 10° ENE visible
25 Jan -2.2 19:18:28 10° NW 19:20:25 32° NW 19:20:25 32° NW visible
26 Jan -3.5 18:30:22 10° NW 18:33:38 50° NNE 18:34:35 36° ENE visible
26 Jan -0.2 20:07:28 10° W 20:07:33 10° W 20:07:33 10° W visible
27 Jan -3.0 17:42:15 10° NW 17:45:22 35° NNE 17:48:29 10° E visible
27 Jan -2.5 19:19:00 10° WNW 19:21:50 38° SW 19:21:50 38° SW visible
28 Jan -3.5 18:30:40 10° WNW 18:34:00 68° SW 18:36:17 18° SE visible
29 Jan -3.8 17:42:24 10° NW 17:45:44 74° NNE 17:49:04 10° ESE visible
29 Jan -0.9 19:20:05 10° W 19:22:07 15° SW 19:23:57 11° SSW visible
30 Jan -1.5 18:31:10 10° W 18:33:59 25° SW 18:36:47 10° SSE visible
